Regional Weather Roundup
Issued by NWS

Home | Current Version | Previous Version | Text Only | Print | Product List | Glossary Off
Versions: 1 2 3 4 5 6 7 8 9 10 11 12 13 14 15 16 17 18 19 20 21 22 23 24 25 26 27 28 29 30 31 32 33 34 35 36 37 38 39 40 41 42 43 44 45 46 47 48 49 50

714
ASUS43 KOAX 241910
RWRNE

WEATHER ROUNDUP FOR NEBRASKA
NATIONAL WEATHER SERVICE OMAHA NE
200 PM CDT TUE MAY 24 2016

NOTES: SATELLITE DATA IS BEING USED TO AUGMENT CLOUD COVER ABOVE
       12000 FEET.
       "FAIR" INDICATES FEW OR NO CLOUDS BELOW 12,000 FEET WITH NO
       SIGNIFICANT WEATHER AND/OR OBSTRUCTIONS TO VISIBILITY.

  * THESE STATIONS DO NOT REPORT WEATHER SUCH AS RAIN...SNOW OR FOG.

NEZ001>004-019>022-054>056-242000-
NEBRASKA PANHANDLE

CITY           SKY/WX    TMP DP  RH WIND       PRES   REMARKS
SCOTTSBLUFF    SUNNY     74  49  41 SE15      29.89F
ALLIANCE       SUNNY     74  49  41 S17G25    29.90F
CHADRON        PTSUNNY   75  43  31 SE13      29.87F
KIMBALL        PTSUNNY   70  48  45 SE15      29.94F
SIDNEY         SUNNY     76  46  34 SE16G24   29.93F
$$

NEZ057>060-069>072-079>082-242000-
SOUTHWEST NEBRASKA

CITY           SKY/WX    TMP DP  RH WIND       PRES   REMARKS
NORTH PLATTE   SUNNY     77  55  46 SE12      29.89F
IMPERIAL       SUNNY     75  54  47 SE23G29   29.90F
LEXINGTON      SUNNY     75  57  53 S9        29.90F
MCCOOK         PTSUNNY   75  58  55 S15G24    29.90F
OGALLALA       SUNNY     77  49  37 SE13G23   29.90F
$$

NEZ005>010-023>029-035>040-094-242000-
NORTH CENTRAL NEBRASKA

CITY           SKY/WX    TMP DP  RH WIND       PRES   REMARKS
VALENTINE      SUNNY     78  38  23 SW7       29.89F
AINSWORTH      SUNNY     78  45  30 S10       29.90F
BROKEN BOW     SUNNY     78  56  46 S13G29    29.90F
O`NEILL        SUNNY     81  50  34 SW6       29.89F
ORD            SUNNY     80  59  48 SE6       29.88S
THEDFORD       SUNNY     79  47  31 S13       29.91S
$$

NEZ041-046>049-061>064-073>077-083>087-242000-
SOUTH CENTRAL NEBRASKA

CITY           SKY/WX    TMP DP  RH WIND       PRES   REMARKS
GRAND ISLAND   SUNNY     77  58  51 VRB3      29.90S
AURORA         SUNNY     76  57  51 W3        29.90S
HASTINGS       SUNNY     76  60  57 S9        29.90S
HEBRON         SUNNY     76  62  60 SW5       29.90S
HOLDREGE       SUNNY     76  55  47 S12       29.90F
KEARNEY *      SUNNY     77  55  47 S12       29.90F
YORK           SUNNY     73  57  56 CALM      29.90S
$$

NEZ011>018-030>034-042>045-242000-
NORTHEAST NEBRASKA

CITY           SKY/WX    TMP DP  RH WIND       PRES   REMARKS
NORFOLK        SUNNY     82  56  40 CALM      29.87F
ALBION         SUNNY     80  54  41 SW7       29.89S
BLAIR          CLOUDY    78  62  56 SW3       29.88F
FREMONT        CLOUDY    78  64  61 W5        29.88S
TEKAMAH        CLOUDY    77  65  66 SE3       29.87F
WAYNE          SUNNY     83  58  42 CALM      29.87S
$$

NEZ050>053-065>068-078-088>093-242000-
SOUTHEAST NEBRASKA

CITY           SKY/WX    TMP DP  RH WIND       PRES   REMARKS
LINCOLN        CLOUDY    77  60  55 W5        29.90S
OMAHA EPPLEY   CLOUDY    78  60  53 CALM      29.87S
BEATRICE       SUNNY     76  62  62 NW6       29.89S
FALLS CITY     MOSUNNY   81  62  52 SW7       29.87R
NEBRASKA CITY  PTSUNNY   76  62  61 N5        29.89R
PLATTSMOUTH    CLOUDY    77  60  54 W3        29.89R
$$

NEZ044-045-051>053-067-242000-
OMAHA AREA

CITY           SKY/WX    TMP DP  RH WIND       PRES   REMARKS
OMAHA EPPLEY   CLOUDY    78  60  53 CALM      29.87S
BLAIR          CLOUDY    78  62  56 SW3       29.88F
FREMONT        CLOUDY    78  64  61 W5        29.88S
MILLARD        MOSUNNY   79  60  52 SE5       29.88S
OFFUTT AFB     CLOUDY    78  59  52 S8        29.88R HAZE
PLATTSMOUTH    CLOUDY    77  60  54 W3        29.89R
WAHOO          FAIR      80  56  45 S7        29.88S
$$




USA.gov is the U.S. government's official web portal to all federal, state and local government web resources and services.